• In Hungary
  • List of Countries
  • For 7 days
  • Water Temperature
  • Satellite Maps
  • Weather Map
  • News
  • Weather Widgets
  • user-avatar
    Login

    Hourly Weather Jawory

    Today, 13 November, Tuesday

    Time Temperature Precipitation Wind Pressure Humidity
    00:00 +10°C° 0 mm 6 mps 756 mmHg 84%
    01:00 +9°C° 0 mm 5 mps 756 mmHg 85%
    02:00 +9°C° 0 mm 5 mps 756 mmHg 86%
    03:00 +9°C° 0 mm 5 mps 756 mmHg 87%
    04:00 +8°C° 0 mm 4 mps 756 mmHg 88%
    05:00 +8°C° 0 mm 4 mps 756 mmHg 88%
    06:00 +8°C° 0 mm 4 mps 756 mmHg 89%
    07:00 +8°C° 0 mm 4 mps 756 mmHg 89%
    08:00 +9°C° 0.2 mm 3 mps 757 mmHg 89%
    09:00 +9°C° 0.2 mm 3 mps 757 mmHg 89%
    10:00 +9°C° 0.2 mm 3 mps 757 mmHg 89%
    11:00 +9°C° 0.4 mm 3 mps 757 mmHg 90%
    12:00 +9°C° 0.4 mm 3 mps 757 mmHg 91%
    13:00 +9°C° 0.4 mm 3 mps 757 mmHg 91%
    14:00 +9°C° 0.9 mm 3 mps 757 mmHg 92%
    15:00 +8°C° 0.9 mm 4 mps 757 mmHg 92%
    16:00 +8°C° 0.9 mm 4 mps 757 mmHg 92%
    17:00 +8°C° 0.3 mm 4 mps 757 mmHg 91%
    18:00 +8°C° 0.3 mm 5 mps 758 mmHg 90%
    19:00 +8°C° 0.3 mm 5 mps 758 mmHg 90%
    20:00 +8°C° 0.1 mm 5 mps 758 mmHg 89%
    21:00 +8°C° 0.1 mm 5 mps 758 mmHg 88%
    22:00 +8°C° 0.1 mm 5 mps 758 mmHg 87%
    23:00 +8°C° 0.1 mm 6 mps 759 mmHg 86%

    Tomorrow, 14 November, Wednesday

    Time Temperature Precipitation Wind Pressure Humidity
    00:00 +8°C° 0.1 mm 6 mps 759 mmHg 85%
    01:00 +8°C° 0.1 mm 6 mps 759 mmHg 84%
    02:00 +8°C° 0.2 mm 6 mps 759 mmHg 84%
    03:00 +8°C° 0.2 mm 6 mps 759 mmHg 85%
    04:00 +8°C° 0.2 mm 6 mps 759 mmHg 85%
    05:00 +8°C° 0.4 mm 6 mps 759 mmHg 85%
    06:00 +8°C° 0.4 mm 6 mps 759 mmHg 86%
    07:00 +8°C° 0.4 mm 6 mps 760 mmHg 86%
    08:00 +8°C° 0.1 mm 5 mps 760 mmHg 85%
    09:00 +9°C° 0.1 mm 5 mps 761 mmHg 84%
    10:00 +9°C° 0.1 mm 5 mps 761 mmHg 83%
    11:00 +9°C° 0.1 mm 5 mps 761 mmHg 81%
    12:00 +9°C° 0.1 mm 5 mps 762 mmHg 80%
    13:00 +9°C° 0.1 mm 5 mps 762 mmHg 79%
    14:00 +10°C° 0.1 mm 4 mps 762 mmHg 80%
    15:00 +10°C° 0.1 mm 4 mps 763 mmHg 82%
    16:00 +8°C° 0.1 mm 4 mps 763 mmHg 83%
    17:00 +9°C° 0 mm 3 mps 763 mmHg 85%
    18:00 +9°C° 0 mm 3 mps 764 mmHg 86%
    19:00 +9°C° 0 mm 2 mps 764 mmHg 87%
    20:00 +8°C° 0 mm 2 mps 764 mmHg 88%
    21:00 +8°C° 0 mm 2 mps 764 mmHg 89%
    22:00 +8°C° 0 mm 2 mps 765 mmHg 91%
    23:00 +7°C° 0 mm 2 mps 765 mmHg 92%

    Day after tomorrow, 15 November, Thursday

    Time Temperature Precipitation Wind Pressure Humidity
    00:00 +7°C° 0 mm 2 mps 765 mmHg 93%
    01:00 +7°C° 0 mm 2 mps 765 mmHg 94%
    02:00 +7°C° 0 mm 2 mps 765 mmHg 94%
    03:00 +6°C° 0 mm 2 mps 765 mmHg 95%
    04:00 +6°C° 0 mm 2 mps 765 mmHg 96%
    05:00 +6°C° 0 mm 2 mps 765 mmHg 95%
    06:00 +6°C° 0 mm 2 mps 766 mmHg 94%
    07:00 +6°C° 0 mm 2 mps 766 mmHg 93%
    08:00 +7°C° 0 mm 2 mps 766 mmHg 90%
    09:00 +7°C° 0 mm 2 mps 766 mmHg 86%
    10:00 +8°C° 0 mm 2 mps 766 mmHg 82%
    11:00 +8°C° 0 mm 2 mps 766 mmHg 79%
    12:00 +9°C° 0 mm 2 mps 767 mmHg 76%
    13:00 +9°C° 0 mm 2 mps 767 mmHg 73%
    14:00 +9°C° 0 mm 2 mps 767 mmHg 75%
    15:00 +10°C° 0 mm 1 mps 767 mmHg 78%
    16:00 +9°C° 0 mm 1 mps 767 mmHg 80%
    17:00 +9°C° 0 mm 1 mps 767 mmHg 81%
    18:00 +9°C° 0 mm 1 mps 767 mmHg 82%
    19:00 +7°C° 0 mm 2 mps 767 mmHg 83%
    20:00 +7°C° 0 mm 2 mps 768 mmHg 85%
    21:00 +7°C° 0 mm 2 mps 768 mmHg 86%
    22:00 +6°C° 0 mm 2 mps 768 mmHg 87%
    23:00 +6°C° 0 mm 2 mps 768 mmHg 88%

    16 November, Friday

    Time Temperature Precipitation Wind Pressure Humidity
    00:00 +6°C° 0 mm 2 mps 768 mmHg 90%
    01:00 +5°C° 0 mm 2 mps 768 mmHg 91%
    02:00 +5°C° 0 mm 2 mps 768 mmHg 92%
    03:00 +5°C° 0 mm 2 mps 769 mmHg 93%
    04:00 +5°C° 0 mm 2 mps 769 mmHg 94%
    05:00 +5°C° 0 mm 2 mps 769 mmHg 94%
    06:00 +4°C° 0 mm 2 mps 769 mmHg 94%
    07:00 +4°C° 0 mm 2 mps 769 mmHg 95%
    08:00 +4°C° 0 mm 3 mps 770 mmHg 91%
    09:00 +5°C° 0 mm 3 mps 770 mmHg 88%
    10:00 +5°C° 0 mm 3 mps 770 mmHg 85%
    11:00 +7°C° 0 mm 3 mps 770 mmHg 82%
    12:00 +8°C° 0 mm 2 mps 770 mmHg 79%
    13:00 +8°C° 0 mm 2 mps 771 mmHg 76%
    14:00 +8°C° 0 mm 2 mps 771 mmHg 79%
    15:00 +7°C° 0 mm 2 mps 771 mmHg 83%
    16:00 +6°C° 0 mm 2 mps 771 mmHg 86%
    17:00 +6°C° 0 mm 2 mps 771 mmHg 87%
    18:00 +5°C° 0 mm 2 mps 771 mmHg 88%
    19:00 +5°C° 0 mm 2 mps 771 mmHg 89%
    20:00 +5°C° 0 mm 2 mps 771 mmHg 89%
    21:00 +4°C° 0 mm 2 mps 771 mmHg 88%
    22:00 +4°C° 0 mm 2 mps 772 mmHg 88%
    23:00 +4°C° 0 mm 2 mps 772 mmHg 88%

    17 November, Saturday

    Time Temperature Precipitation Wind Pressure Humidity
    00:00 +4°C° 0 mm 2 mps 772 mmHg 89%
    01:00 +3°C° 0 mm 2 mps 772 mmHg 90%
    02:00 +3°C° 0 mm 2 mps 772 mmHg 90%
    03:00 +3°C° 0 mm 2 mps 772 mmHg 91%
    04:00 +3°C° 0 mm 2 mps 772 mmHg 91%
    05:00 +3°C° 0 mm 2 mps 772 mmHg 91%
    06:00 +3°C° 0 mm 2 mps 772 mmHg 91%
    07:00 +3°C° 0 mm 2 mps 772 mmHg 91%
    08:00 +4°C° 0 mm 1 mps 772 mmHg 87%
    09:00 +5°C° 0 mm 1 mps 772 mmHg 83%
    10:00 +6°C° 0 mm 1 mps 773 mmHg 79%
    11:00 +7°C° 0 mm 1 mps 772 mmHg 75%
    12:00 +7°C° 0 mm 1 mps 772 mmHg 71%
    13:00 +8°C° 0 mm 1 mps 772 mmHg 67%
    14:00 +7°C° 0 mm 1 mps 772 mmHg 70%
    15:00 +7°C° 0 mm 1 mps 772 mmHg 74%
    16:00 +5°C° 0 mm 0 mps 772 mmHg 77%
    17:00 +5°C° 0 mm 0 mps 772 mmHg 78%
    18:00 +5°C° 0 mm 0 mps 771 mmHg 79%
    19:00 +4°C° 0 mm 0 mps 771 mmHg 80%
    20:00 +4°C° 0 mm 0 mps 771 mmHg 80%
    21:00 +4°C° 0 mm 0 mps 771 mmHg 81%
    22:00 +5°C° 0 mm 1 mps 771 mmHg 81%
    23:00 +5°C° 0 mm 1 mps 771 mmHg 81%

    18 November, Sunday

    Time Temperature Precipitation Wind Pressure Humidity
    00:00 +5°C° 0 mm 1 mps 771 mmHg 81%
    01:00 +4°C° 0 mm 1 mps 770 mmHg 81%
    02:00 +3°C° 0 mm 2 mps 770 mmHg 82%
    03:00 +3°C° 0 mm 2 mps 769 mmHg 83%
    04:00 +3°C° 0 mm 2 mps 769 mmHg 84%
    05:00 +3°C° 0 mm 2 mps 769 mmHg 86%
    06:00 +4°C° 0 mm 2 mps 768 mmHg 88%
    07:00 +3°C° 0 mm 3 mps 768 mmHg 89%
    08:00 +4°C° 0 mm 3 mps 768 mmHg 88%
    09:00 +5°C° 0 mm 3 mps 768 mmHg 86%
    10:00 +7°C° 0 mm 3 mps 767 mmHg 85%
    11:00 +6°C° 0 mm 4 mps 767 mmHg 84%
    12:00 +6°C° 0 mm 4 mps 767 mmHg 83%
    13:00 +7°C° 0 mm 5 mps 766 mmHg 82%
    14:00 +7°C° 0 mm 5 mps 766 mmHg 81%
    15:00 +6°C° 0 mm 5 mps 766 mmHg 81%
    16:00 +5°C° 0 mm 6 mps 765 mmHg 80%
    17:00 +5°C° 0 mm 6 mps 765 mmHg 80%
    18:00 +5°C° 0 mm 7 mps 765 mmHg 79%
    19:00 +5°C° 0 mm 7 mps 765 mmHg 79%
    20:00 +4°C° 0.1 mm 7 mps 765 mmHg 78%
    21:00 +4°C° 0.1 mm 7 mps 765 mmHg 77%
    22:00 +4°C° 0.1 mm 7 mps 765 mmHg 76%
    23:00 +4°C° 0.1 mm 6 mps 765 mmHg 75%
    Show more